Time,TemperatureF,DewpointF,PressureIn,WindDirection,WindDirectionDegrees,WindSpeedMPH,WindSpeedGustMPH,Humidity,HourlyPrecipIn,Conditions,Clouds,dailyrainin,SoftwareType,DateUTC
2013-02-17 00:02:00,30.0,27.0,29.71,North,352,6.0,6.0,89,0.00,,,0.03,,2013-02-17 05:02:00,
2013-02-17 00:12:00,30.0,27.0,29.72,NNE,20,5.0,5.0,89,0.00,,,0.03,,2013-02-17 05:12:00,
2013-02-17 00:22:00,30.0,27.0,29.72,NNE,20,5.0,5.0,89,0.00,,,0.03,,2013-02-17 05:22:00,
2013-02-17 00:33:00,30.0,27.0,29.72,NNE,20,5.0,5.0,89,0.00,,,0.03,,2013-02-17 05:33:00,
2013-02-17 00:42:00,30.0,27.0,29.72,NNE,20,5.0,5.0,89,0.00,,,0.03,,2013-02-17 05:42:00,
2013-02-17 00:52:00,29.0,26.0,29.71,NNE,28,0.0,5.0,87,0.00,,,0.03,,2013-02-17 05:52:00,
2013-02-17 01:02:00,29.0,26.0,29.70,NNW,335,0.0,5.0,87,0.00,,,0.03,,2013-02-17 06:02:00,
2013-02-17 01:11:00,29.0,26.0,29.70,NNW,335,0.0,5.0,87,0.00,,,0.03,,2013-02-17 06:11:00,
2013-02-17 01:21:00,29.0,26.0,29.69,NNW,333,5.0,5.0,89,0.00,,,0.03,,2013-02-17 06:21:00,
2013-02-17 01:31:00,28.0,25.0,29.67,NNE,25,2.0,8.0,90,0.00,,,0.03,,2013-02-17 06:31:00,
2013-02-17 01:42:00,28.0,25.0,29.67,NNE,25,2.0,8.0,90,0.00,,,0.03,,2013-02-17 06:42:00,
2013-02-17 01:52:00,28.0,26.0,29.67,NNW,343,3.0,8.0,91,0.00,,,0.03,,2013-02-17 06:52:00,
2013-02-17 02:01:00,28.0,26.0,29.67,NNW,343,3.0,8.0,91,0.00,,,0.03,,2013-02-17 07:01:00,
2013-02-17 02:11:00,28.0,26.0,29.68,NNW,341,3.0,8.0,92,0.00,,,0.03,,2013-02-17 07:11:00,
2013-02-17 02:21:00,28.0,26.0,29.68,NNW,341,3.0,8.0,92,0.00,,,0.03,,2013-02-17 07:21:00,
2013-02-17 02:32:00,27.0,25.0,29.66,NW,307,6.0,8.0,93,0.00,,,0.03,,2013-02-17 07:32:00,
2013-02-17 02:42:00,27.0,25.0,29.66,NW,307,6.0,8.0,93,0.00,,,0.03,,2013-02-17 07:42:00,
2013-02-17 02:51:00,27.0,25.0,29.64,NW,304,4.0,8.0,93,0.00,,,0.03,,2013-02-17 07:51:00,
2013-02-17 03:01:00,26.0,24.0,29.63,NW,315,6.0,8.0,93,0.00,,,0.03,,2013-02-17 08:01:00,
2013-02-17 03:11:00,26.0,24.0,29.63,NW,315,6.0,8.0,93,0.00,,,0.03,,2013-02-17 08:11:00,
2013-02-17 03:21:00,26.0,24.0,29.63,NW,315,6.0,8.0,93,0.00,,,0.03,,2013-02-17 08:21:00,
2013-02-17 03:32:00,26.0,24.0,29.63,NNW,333,5.0,8.0,93,0.00,,,0.03,,2013-02-17 08:32:00,
2013-02-17 03:42:00,26.0,24.0,29.63,NNW,333,5.0,8.0,93,0.00,,,0.03,,2013-02-17 08:42:00,
2013-02-17 03:52:00,25.0,23.0,29.64,NW,309,5.0,8.0,91,0.00,,,0.03,,2013-02-17 08:52:00,
2013-02-17 04:02:00,24.0,22.0,29.64,NW,318,0.0,8.0,90,0.00,,,0.03,,2013-02-17 09:02:00,
2013-02-17 04:11:00,24.0,22.0,29.64,NW,318,0.0,8.0,90,0.00,,,0.03,,2013-02-17 09:11:00,
2013-02-17 04:21:00,24.0,22.0,29.64,NW,318,0.0,8.0,90,0.00,,,0.03,,2013-02-17 09:21:00,
2013-02-17 04:32:00,23.0,21.0,29.62,North,11,6.0,14.0,91,0.00,,,0.03,,2013-02-17 09:32:00,
2013-02-17 04:42:00,23.0,21.0,29.62,North,11,6.0,14.0,91,0.00,,,0.03,,2013-02-17 09:42:00,
2013-02-17 04:52:00,23.0,21.0,29.62,North,11,6.0,14.0,91,0.00,,,0.03,,2013-02-17 09:52:00,
2013-02-17 05:01:00,23.0,21.0,29.62,NNW,332,6.0,14.0,91,0.00,,,0.03,,2013-02-17 10:01:00,
2013-02-17 05:11:00,23.0,21.0,29.62,NW,321,3.0,14.0,90,0.00,,,0.03,,2013-02-17 10:11:00,
2013-02-17 05:22:00,23.0,21.0,29.62,NW,321,3.0,14.0,90,0.00,,,0.03,,2013-02-17 10:22:00,
2013-02-17 05:32:00,22.0,20.0,29.60,NW,321,6.0,15.0,90,0.00,,,0.03,,2013-02-17 10:32:00,
2013-02-17 05:42:00,22.0,20.0,29.60,NW,321,6.0,15.0,90,0.00,,,0.03,,2013-02-17 10:42:00,
2013-02-17 05:52:00,21.0,19.0,29.58,West,281,4.0,15.0,91,0.00,,,0.03,,2013-02-17 10:52:00,
2013-02-17 06:01:00,21.0,19.0,29.58,NW,310,6.0,15.0,91,0.00,,,0.03,,2013-02-17 11:01:00,
2013-02-17 06:11:00,21.0,19.0,29.58,NW,310,6.0,15.0,91,0.00,,,0.03,,2013-02-17 11:11:00,
2013-02-17 06:21:00,21.0,19.0,29.58,NW,310,6.0,15.0,91,0.00,,,0.03,,2013-02-17 11:21:00,
2013-02-17 06:32:00,21.0,19.0,29.57,NW,306,5.0,10.0,92,0.00,,,0.03,,2013-02-17 11:32:00,
2013-02-17 06:42:00,21.0,19.0,29.57,NW,306,5.0,10.0,92,0.00,,,0.03,,2013-02-17 11:42:00,
2013-02-17 06:53:00,20.0,18.0,29.57,NNW,327,8.0,10.0,92,0.00,,,0.03,,2013-02-17 11:53:00,
2013-02-17 07:03:00,20.0,18.0,29.55,NNW,328,4.0,10.0,92,0.00,,,0.03,,2013-02-17 12:03:00,
2013-02-17 07:11:00,20.0,18.0,29.55,NNW,328,4.0,10.0,92,0.00,,,0.03,,2013-02-17 12:11:00,
2013-02-17 07:22:00,20.0,18.0,29.54,WNW,303,5.0,10.0,92,0.00,,,0.03,,2013-02-17 12:22:00,
2013-02-17 07:32:00,20.0,18.0,29.54,NW,308,16.0,16.0,92,0.00,,,0.03,,2013-02-17 12:32:00,
2013-02-17 07:42:00,20.0,18.0,29.54,NW,308,16.0,16.0,92,0.00,,,0.03,,2013-02-17 12:42:00,
2013-02-17 07:52:00,20.0,18.0,29.54,NW,323,9.0,15.0,91,0.00,,,0.03,,2013-02-17 12:52:00,
2013-02-17 08:02:00,20.0,18.0,29.53,North,2,11.0,15.0,90,0.00,,,0.03,,2013-02-17 13:02:00,
2013-02-17 08:12:00,20.0,18.0,29.53,North,2,11.0,15.0,90,0.00,,,0.03,,2013-02-17 13:12:00,
2013-02-17 08:22:00,21.0,17.0,29.52,NW,323,9.0,15.0,86,0.00,,,0.03,,2013-02-17 13:22:00,
2013-02-17 08:32:00,21.0,16.0,29.52,NW,325,12.0,15.0,82,0.01,,,0.04,,2013-02-17 13:32:00,
2013-02-17 08:42:00,21.0,16.0,29.52,NW,325,12.0,15.0,82,0.01,,,0.04,,2013-02-17 13:42:00,
2013-02-17 08:51:00,21.0,15.0,29.52,NNW,341,9.0,15.0,78,0.01,,,0.04,,2013-02-17 13:51:00,
2013-02-17 09:01:00,22.0,14.0,29.52,NW,305,13.0,15.0,72,0.01,,,0.04,,2013-02-17 14:01:00,
2013-02-17 09:11:00,22.0,14.0,29.52,NW,305,13.0,15.0,72,0.01,,,0.04,,2013-02-17 14:11:00,
2013-02-17 09:22:00,22.0,13.0,29.52,WNW,286,9.0,15.0,67,0.01,,,0.04,,2013-02-17 14:22:00,
2013-02-17 09:32:00,22.0,12.0,29.51,WNW,283,14.0,21.0,64,0.00,,,0.04,,2013-02-17 14:32:00,
2013-02-17 09:42:00,22.0,12.0,29.51,WNW,283,14.0,21.0,64,0.00,,,0.04,,2013-02-17 14:42:00,
2013-02-17 09:53:00,23.0,11.0,29.51,NW,309,15.0,21.0,60,0.00,,,0.04,,2013-02-17 14:53:00,
2013-02-17 10:02:00,23.0,10.0,29.51,NW,322,10.0,21.0,57,0.00,,,0.04,,2013-02-17 15:02:00,
2013-02-17 10:11:00,23.0,10.0,29.51,NW,322,10.0,21.0,57,0.00,,,0.04,,2013-02-17 15:11:00,
2013-02-17 10:21:00,24.0,9.0,29.52,West,277,5.0,21.0,53,0.00,,,0.04,,2013-02-17 15:21:00,
2013-02-17 10:32:00,24.0,9.0,29.51,NW,314,11.0,18.0,53,0.00,,,0.04,,2013-02-17 15:32:00,
2013-02-17 10:42:00,24.0,9.0,29.51,NW,314,11.0,18.0,53,0.00,,,0.04,,2013-02-17 15:42:00,
2013-02-17 10:52:00,24.0,8.0,29.51,West,274,7.0,18.0,50,0.00,,,0.04,,2013-02-17 15:52:00,
2013-02-17 11:01:00,24.0,8.0,29.51,West,274,7.0,18.0,50,0.00,,,0.04,,2013-02-17 16:01:00,
2013-02-17 11:12:00,24.0,8.0,29.51,West,274,7.0,18.0,50,0.00,,,0.04,,2013-02-17 16:12:00,
2013-02-17 11:21:00,24.0,8.0,29.51,West,274,7.0,18.0,50,0.00,,,0.04,,2013-02-17 16:21:00,
2013-02-17 11:32:00,24.0,9.0,29.53,West,277,8.0,10.0,52,0.00,,,0.04,,2013-02-17 16:32:00,
2013-02-17 11:42:00,24.0,9.0,29.53,West,277,8.0,10.0,52,0.00,,,0.04,,2013-02-17 16:42:00,
2013-02-17 11:52:00,23.0,8.0,29.53,West,264,10.0,10.0,51,0.00,,,0.04,,2013-02-17 16:52:00,
2013-02-17 12:02:00,23.0,8.0,29.53,NW,310,10.0,10.0,51,0.00,,,0.04,,2013-02-17 17:02:00,
2013-02-17 12:11:00,23.0,8.0,29.53,NW,310,10.0,10.0,51,0.00,,,0.04,,2013-02-17 17:11:00,
2013-02-17 12:21:00,24.0,8.0,29.54,NW,307,7.0,10.0,50,0.00,,,0.04,,2013-02-17 17:21:00,
2013-02-17 12:32:00,24.0,8.0,29.54,NW,318,7.0,11.0,50,0.00,,,0.04,,2013-02-17 17:32:00,
2013-02-17 12:42:00,24.0,8.0,29.54,NW,318,7.0,11.0,50,0.00,,,0.04,,2013-02-17 17:42:00,
2013-02-17 12:52:00,24.0,8.0,29.54,West,280,3.0,11.0,50,0.00,,,0.04,,2013-02-17 17:52:00,
2013-02-17 13:02:00,24.0,8.0,29.54,North,6,12.0,12.0,49,0.00,,,0.04,,2013-02-17 18:02:00,
2013-02-17 13:11:00,24.0,8.0,29.54,North,6,12.0,12.0,49,0.00,,,0.04,,2013-02-17 18:11:00,
2013-02-17 13:22:00,24.0,8.0,29.54,North,6,12.0,12.0,49,0.00,,,0.04,,2013-02-17 18:22:00,
2013-02-17 13:33:00,24.0,8.0,29.54,North,6,12.0,12.0,49,0.00,,,0.04,,2013-02-17 18:33:00,
2013-02-17 13:52:00,25.0,7.0,29.56,West,274,10.0,10.0,45,0.00,,,0.04,,2013-02-17 18:52:00,
2013-02-17 14:02:00,26.0,7.0,29.57,NNW,347,18.0,18.0,44,0.00,,,0.04,,2013-02-17 19:02:00,
2013-02-17 14:11:00,26.0,7.0,29.57,NNW,347,18.0,18.0,44,0.00,,,0.04,,2013-02-17 19:11:00,
2013-02-17 14:21:00,26.0,7.0,29.57,West,277,5.0,9.0,43,0.00,,,0.04,,2013-02-17 19:21:00,
2013-02-17 14:32:00,26.0,7.0,29.57,West,277,5.0,9.0,43,0.00,,,0.04,,2013-02-17 19:32:00,
2013-02-17 14:42:00,26.0,7.0,29.57,West,277,5.0,9.0,43,0.00,,,0.04,,2013-02-17 19:42:00,
2013-02-17 14:52:00,27.0,8.0,29.57,WNW,283,9.0,17.0,44,0.00,,,0.04,,2013-02-17 19:52:00,
2013-02-17 15:02:00,27.0,8.0,29.57,WNW,283,9.0,17.0,44,0.00,,,0.04,,2013-02-17 20:02:00,
2013-02-17 15:11:00,27.0,8.0,29.57,WNW,283,9.0,17.0,44,0.00,,,0.04,,2013-02-17 20:11:00,
2013-02-17 15:22:00,27.0,8.0,29.57,WNW,283,9.0,17.0,44,0.00,,,0.04,,2013-02-17 20:22:00,
2013-02-17 15:32:00,27.0,8.0,29.59,West,268,11.0,15.0,43,0.00,,,0.04,,2013-02-17 20:32:00,
2013-02-17 15:43:00,27.0,8.0,29.59,West,268,11.0,15.0,43,0.00,,,0.04,,2013-02-17 20:43:00,
2013-02-17 15:52:00,27.0,8.0,29.60,WNW,303,9.0,15.0,43,0.00,,,0.04,,2013-02-17 20:52:00,
2013-02-17 16:02:00,27.0,8.0,29.60,WNW,303,9.0,15.0,43,0.00,,,0.04,,2013-02-17 21:02:00,
2013-02-17 16:11:00,27.0,8.0,29.60,WNW,303,9.0,15.0,43,0.00,,,0.04,,2013-02-17 21:11:00,
2013-02-17 16:21:00,27.0,8.0,29.60,WNW,303,9.0,15.0,43,0.00,,,0.04,,2013-02-17 21:21:00,
2013-02-17 16:32:00,26.0,7.0,29.62,WSW,246,5.0,13.0,43,0.00,,,0.04,,2013-02-17 21:32:00,
2013-02-17 16:42:00,26.0,7.0,29.62,WSW,246,5.0,13.0,43,0.00,,,0.04,,2013-02-17 21:42:00,
2013-02-17 16:53:00,25.0,5.0,29.62,WNW,282,15.0,15.0,42,0.00,,,0.04,,2013-02-17 21:53:00,
2013-02-17 17:01:00,25.0,5.0,29.63,NW,310,25.0,25.0,41,0.00,,,0.04,,2013-02-17 22:01:00,
2013-02-17 17:12:00,25.0,5.0,29.63,NW,310,25.0,25.0,41,0.00,,,0.04,,2013-02-17 22:12:00,
2013-02-17 17:22:00,25.0,5.0,29.64,NNW,330,19.0,19.0,41,0.00,,,0.04,,2013-02-17 22:22:00,
2013-02-17 17:32:00,25.0,5.0,29.65,West,276,15.0,15.0,41,0.00,,,0.04,,2013-02-17 22:32:00,
2013-02-17 17:42:00,25.0,5.0,29.65,West,276,15.0,15.0,41,0.00,,,0.04,,2013-02-17 22:42:00,
2013-02-17 17:52:00,24.0,4.0,29.66,North,357,11.0,15.0,41,0.00,,,0.04,,2013-02-17 22:52:00,
2013-02-17 18:02:00,24.0,4.0,29.67,NW,318,17.0,17.0,42,0.00,,,0.04,,2013-02-17 23:02:00,
2013-02-17 18:11:00,24.0,4.0,29.67,NW,318,17.0,17.0,42,0.00,,,0.04,,2013-02-17 23:11:00,
2013-02-17 18:21:00,24.0,5.0,29.68,West,280,2.0,15.0,43,0.00,,,0.04,,2013-02-17 23:21:00,
2013-02-17 18:32:00,24.0,5.0,29.68,West,280,2.0,15.0,43,0.00,,,0.04,,2013-02-17 23:32:00,
2013-02-17 18:42:00,24.0,5.0,29.68,West,280,2.0,15.0,43,0.00,,,0.04,,2013-02-17 23:42:00,
2013-02-17 18:52:00,24.0,5.0,29.68,West,280,2.0,15.0,43,0.00,,,0.04,,2013-02-17 23:52:00,
2013-02-17 19:01:00,23.0,4.0,29.71,WNW,285,14.0,16.0,43,0.00,,,0.04,,2013-02-18 00:01:00,
2013-02-17 19:12:00,23.0,4.0,29.71,WNW,285,14.0,16.0,43,0.00,,,0.04,,2013-02-18 00:12:00,
2013-02-17 19:22:00,23.0,4.0,29.72,NW,309,18.0,18.0,43,0.00,,,0.04,,2013-02-18 00:22:00,
2013-02-17 19:32:00,22.0,3.0,29.72,West,270,7.0,13.0,44,0.00,,,0.04,,2013-02-18 00:32:00,
2013-02-17 19:42:00,22.0,3.0,29.72,West,270,7.0,13.0,44,0.00,,,0.04,,2013-02-18 00:42:00,
2013-02-17 19:52:00,22.0,3.0,29.73,NW,321,5.0,13.0,44,0.00,,,0.04,,2013-02-18 00:52:00,
2013-02-17 20:01:00,21.0,3.0,29.73,WNW,299,12.0,13.0,45,0.00,,,0.04,,2013-02-18 01:01:00,
2013-02-17 20:12:00,21.0,3.0,29.73,WNW,299,12.0,13.0,45,0.00,,,0.04,,2013-02-18 01:12:00,
2013-02-17 20:21:00,21.0,3.0,29.74,West,274,13.0,13.0,45,0.00,,,0.04,,2013-02-18 01:21:00,
2013-02-17 20:32:00,21.0,3.0,29.74,WNW,286,13.0,21.0,45,0.00,,,0.04,,2013-02-18 01:32:00,
2013-02-17 20:42:00,21.0,3.0,29.74,WNW,286,13.0,21.0,45,0.00,,,0.04,,2013-02-18 01:42:00,
2013-02-17 20:51:00,21.0,3.0,29.74,WNW,286,13.0,21.0,45,0.00,,,0.04,,2013-02-18 01:51:00,
2013-02-17 21:02:00,20.0,3.0,29.74,WNW,287,11.0,21.0,46,0.00,,,0.04,,2013-02-18 02:02:00,
2013-02-17 21:11:00,20.0,3.0,29.74,WNW,287,11.0,21.0,46,0.00,,,0.04,,2013-02-18 02:11:00,
2013-02-17 21:22:00,20.0,3.0,29.75,WNW,287,13.0,21.0,47,0.00,,,0.04,,2013-02-18 02:22:00,
2013-02-17 21:32:00,20.0,4.0,29.76,West,269,11.0,13.0,48,0.00,,,0.04,,2013-02-18 02:32:00,
2013-02-17 21:42:00,20.0,4.0,29.76,West,269,11.0,13.0,48,0.00,,,0.04,,2013-02-18 02:42:00,
2013-02-17 21:52:00,19.0,3.0,29.76,WNW,292,7.0,13.0,49,0.00,,,0.04,,2013-02-18 02:52:00,
2013-02-17 22:01:00,19.0,3.0,29.77,WNW,283,15.0,15.0,50,0.00,,,0.04,,2013-02-18 03:01:00,
2013-02-17 22:11:00,19.0,3.0,29.77,WNW,283,15.0,15.0,50,0.00,,,0.04,,2013-02-18 03:11:00,
2013-02-17 22:21:00,19.0,4.0,29.77,NW,306,15.0,15.0,51,0.00,,,0.04,,2013-02-18 03:21:00,
2013-02-17 22:32:00,18.0,3.0,29.78,WNW,285,9.0,29.0,52,0.00,,,0.04,,2013-02-18 03:32:00,
2013-02-17 22:42:00,18.0,3.0,29.78,WNW,285,9.0,29.0,52,0.00,,,0.04,,2013-02-18 03:42:00,
2013-02-17 22:51:00,18.0,4.0,29.78,West,271,10.0,29.0,53,0.00,,,0.04,,2013-02-18 03:51:00,
2013-02-17 23:01:00,18.0,4.0,29.80,NW,308,22.0,29.0,53,0.00,,,0.04,,2013-02-18 04:01:00,
2013-02-17 23:11:00,18.0,4.0,29.80,NW,308,22.0,29.0,53,0.00,,,0.04,,2013-02-18 04:11:00,
2013-02-17 23:21:00,18.0,4.0,29.80,NW,308,22.0,29.0,53,0.00,,,0.04,,2013-02-18 04:21:00,
2013-02-17 23:32:00,17.0,4.0,29.81,NW,304,11.0,19.0,55,0.00,,,0.01,,2013-02-18 04:32:00,
2013-02-17 23:42:00,17.0,4.0,29.81,NW,304,11.0,19.0,55,0.00,,,0.01,,2013-02-18 04:42:00,
2013-02-17 23:52:00,17.0,4.0,29.81,WNW,292,8.0,19.0,55,0.00,,,0.01,,2013-02-18 04:52:00,